Weather History for Midland Airpark, TX

Change the Weather History Date:

Thursday, April 26, 2012

  Actual Average (KMAF) Record (KMAF)
Temperature  
Mean Temperature 82 °F 68 °F  
Max Temperature 96 °F 82 °F 97 °F (1959)
Min Temperature 69 °F 53 °F 37 °F (1946)
Degree Days  
Heating Degree Days 0 2  
Month to date heating degree days 105  
Since 1 July heating degree days 2649  
Cooling Degree Days 18 4  
Month to date cooling degree days 69  
Year to date cooling degree days 87  
Growing Degree Days 32 (Base 50)    
Moisture  
Dew Point 36 °F    
Average Humidity 20    
Maximum Humidity 45    
Minimum Humidity 8    
Precipitation  
Precipitation 0.00 in 0.02 in 0.57 in (1936)
Month to date precipitation 0.55  
Year to date precipitation 2.42  
Snow  
Snow 0.00 in - - ()
Month to date snowfall  
Since 1 July snowfall  
Snow Depth -    
Sea Level Pressure  
Sea Level Pressure 29.85 in    
Wind  
Wind Speed 8 mph (SW)    
Max Wind Speed 14 mph    
Max Gust Speed 18 mph    
Visibility 10 miles    
Events      
T = Trace of Precipitation, MM = Missing Value Source: NWS Daily Summary

Daily Weather History Graph

Daily Weather History Graph

Search for Another Location

Airport:

Trip Planner

Search our weather history database for the weather conditions in past years. The results will help you decide how hot, cold, wet, or windy it might be!

Date:

Astronomy

Apr. 26, 2012 Rise Set
Actual Time 7:06 AM CDT 8:25 PM CDT
Civil Twilight 6:41 AM CDT 8:51 PM CDT
Nautical Twilight 6:10 AM CDT 9:22 PM CDT
Astronomical Twilight 5:38 AM CDT 9:54 PM CDT
Moon 10:55 AM CDT (4/26) 12:24 AM CDT (4/26)
Length of Visible Light 14h 10m
Length of Day
13h 19m
Waxing Crescent, 24% of the Moon is Illuminated
Apr 26
Waxing Crescent
Apr 29
First Quarter
May 5
Full
May 12
Last Quarter
May 20
New

Hourly Weather History & Observations

Time (CDT) Temp. Dew Point Humidity Pressure Visibility Wind Dir Wind Speed Gust Speed Precip Events Conditions
12:15 AM 84.6 °F 46.6 °F 27% 29.86 in 10.0 mi SSW 13.8 mph 17.3 mph N/A   Clear
12:35 AM 84.6 °F 48.6 °F 29% 29.87 in 10.0 mi SSW 12.7 mph 18.4 mph N/A   Clear
12:55 AM 83.8 °F 48.7 °F 29% 29.87 in 10.0 mi SSW 13.8 mph - N/A   Clear
1:15 AM 82.9 °F 48.7 °F 30% 29.87 in 10.0 mi SSW 10.4 mph - N/A   Clear
1:35 AM 82.6 °F 48.6 °F 30% 29.88 in 10.0 mi SW 9.2 mph - N/A   Clear
1:55 AM 82.6 °F 48.4 °F 30% 29.88 in 10.0 mi SW 9.2 mph - N/A   Clear
2:15 AM 82.0 °F 48.4 °F 31% 29.86 in 10.0 mi SW 11.5 mph - N/A   Clear
2:35 AM 81.7 °F 48.2 °F 31% 29.86 in 10.0 mi SW 11.5 mph - N/A   Clear
2:55 AM 81.3 °F 47.7 °F 31% 29.85 in 10.0 mi SSW 10.4 mph - N/A   Clear
3:15 AM 81.1 °F 47.3 °F 30% 29.85 in 10.0 mi SSW 9.2 mph - N/A   Clear
3:35 AM 80.4 °F 46.8 °F 31% 29.85 in 10.0 mi SW 9.2 mph - N/A   Clear
3:55 AM 79.3 °F 46.4 °F 31% 29.85 in 10.0 mi SW 6.9 mph - N/A   Clear
4:15 AM 78.6 °F 46.0 °F 32% 29.85 in 10.0 mi SW 5.8 mph - N/A   Clear
4:35 AM 78.4 °F 45.3 °F 31% 29.86 in 10.0 mi SW 6.9 mph - N/A   Clear
4:55 AM 78.3 °F 45.0 °F 31% 29.86 in 10.0 mi SW 6.9 mph - N/A   Clear
5:15 AM 77.9 °F 44.6 °F 31% 29.86 in 10.0 mi SSW 5.8 mph - N/A   Clear
5:35 AM 76.6 °F 44.6 °F 32% 29.86 in 10.0 mi SW 5.8 mph - N/A   Clear
5:55 AM 75.6 °F 44.6 °F 33% 29.87 in 10.0 mi WSW 4.6 mph - N/A   Clear
6:15 AM 73.8 °F 45.3 °F 36% 29.88 in 10.0 mi WSW 5.8 mph - N/A   Clear
6:35 AM 72.1 °F 46.4 °F 40% 29.88 in 10.0 mi West 5.8 mph - N/A   Clear
6:55 AM 70.3 °F 46.9 °F 43% 29.88 in 10.0 mi West 5.8 mph - N/A   Clear
7:15 AM 69.6 °F 47.5 °F 45% 29.88 in 10.0 mi West 8.1 mph - N/A   Clear
7:35 AM 70.2 °F 45.9 °F 42% 29.89 in 10.0 mi West 8.1 mph - N/A   Clear
7:55 AM 71.8 °F 39.0 °F 30% 29.89 in 10.0 mi West 6.9 mph - N/A   Clear
8:15 AM 72.9 °F 33.6 °F 24% 29.89 in 10.0 mi WNW 6.9 mph - N/A   Clear
8:35 AM 73.8 °F 32.4 °F 22% 29.89 in 10.0 mi WNW 6.9 mph - N/A   Clear
8:55 AM 76.6 °F 32.0 °F 20% 29.89 in 10.0 mi WNW 6.9 mph - N/A   Clear
9:15 AM 79.2 °F 33.1 °F 19% 29.89 in 10.0 mi WNW 4.6 mph - N/A   Clear
9:35 AM 82.8 °F 31.5 °F 16% 29.89 in 10.0 mi WNW 9.2 mph - N/A   Clear
9:55 AM 84.9 °F 29.8 °F 14% 29.89 in 10.0 mi NNW 8.1 mph - N/A   Clear
10:15 AM 85.5 °F 30.2 °F 14% 29.89 in 10.0 mi NW 8.1 mph - N/A   Clear
10:35 AM 85.8 °F 30.2 °F 13% 29.89 in 10.0 mi WNW 5.8 mph - N/A   Clear
10:55 AM 86.5 °F 30.7 °F 13% 29.90 in 10.0 mi WNW 4.6 mph - N/A   Clear
11:15 AM 87.4 °F 31.1 °F 13% 29.90 in 10.0 mi NNW 4.6 mph - N/A   Clear
11:35 AM 88.0 °F 31.1 °F 13% 29.91 in 10.0 mi WNW 3.5 mph - N/A   Clear
11:55 AM 88.2 °F 31.1 °F 13% 29.91 in 10.0 mi Calm Calm - N/A   Clear
12:15 PM 88.7 °F 31.5 °F 13% 29.91 in 10.0 mi Calm Calm - N/A   Clear
12:35 PM 89.2 °F 31.8 °F 13% 29.91 in 10.0 mi Calm Calm - N/A   Clear
12:55 PM 90.0 °F 32.2 °F 13% 29.90 in 10.0 mi South 3.5 mph - N/A   Clear
1:15 PM 90.9 °F 32.5 °F 13% 29.90 in 10.0 mi Calm Calm - N/A   Clear
1:35 PM 91.9 °F 32.0 °F 12% 29.88 in 10.0 mi SSW 3.5 mph - N/A   Clear
1:55 PM 92.8 °F 31.8 °F 11% 29.88 in 10.0 mi Calm Calm - N/A   Clear
2:15 PM 93.6 °F 32.0 °F 11% 29.88 in 10.0 mi WSW 5.8 mph - N/A   Clear
2:35 PM 93.9 °F 32.9 °F 12% 29.88 in 10.0 mi SW 4.6 mph - N/A   Clear
2:55 PM 93.9 °F 33.1 °F 12% 29.88 in 10.0 mi WSW 3.5 mph - N/A   Clear
3:15 PM 94.1 °F 32.9 °F 12% 29.88 in 10.0 mi West 5.8 mph - N/A   Clear
3:55 PM 94.8 °F 32.2 °F 11% 29.85 in 10.0 mi SSW 4.6 mph - N/A   Clear
4:15 PM 95.7 °F 32.0 °F 11% 29.84 in 10.0 mi Calm Calm - N/A   Clear
4:35 PM 96.1 °F 30.9 °F 10% 29.83 in 10.0 mi WSW 4.6 mph - N/A   Clear
4:55 PM 96.8 °F 28.0 °F 9% 29.81 in 10.0 mi Calm Calm - N/A   Clear
5:15 PM 96.8 °F 28.2 °F 9% 29.82 in 10.0 mi South 4.6 mph - N/A   Clear
5:35 PM 96.4 °F 27.5 °F 9% 29.81 in 10.0 mi South 5.8 mph - N/A   Clear
5:55 PM 96.3 °F 26.6 °F 8% 29.81 in 10.0 mi SSW 8.1 mph - N/A   Clear
6:15 PM 96.1 °F 25.3 °F 8% 29.80 in 10.0 mi South 8.1 mph - N/A   Clear
6:35 PM 95.5 °F 26.1 °F 8% 29.80 in 10.0 mi SSW 5.8 mph - N/A   Clear
6:55 PM 94.8 °F 27.3 °F 9% 29.80 in 10.0 mi SSW 5.8 mph - N/A   Clear
7:15 PM 93.9 °F 29.1 °F 10% 29.79 in 10.0 mi South 4.6 mph - N/A   Clear
7:55 PM 93.0 °F 30.2 °F 11% 29.78 in 10.0 mi SSE 5.8 mph - N/A   Clear
8:15 PM 91.2 °F 29.8 °F 11% 29.77 in 10.0 mi SSE 6.9 mph - N/A   Clear
8:35 PM 88.7 °F 29.1 °F 12% 29.76 in 10.0 mi SSE 6.9 mph - N/A   Clear
8:55 PM 86.5 °F 28.4 °F 12% 29.77 in 10.0 mi SSE 5.8 mph - N/A   Clear
9:15 PM 85.6 °F 28.0 °F 12% 29.77 in 10.0 mi South 5.8 mph - N/A   Clear
9:35 PM 84.0 °F 28.0 °F 13% 29.78 in 10.0 mi South 8.1 mph - N/A   Clear
9:55 PM 83.3 °F 27.7 °F 13% 29.77 in 10.0 mi South 9.2 mph - N/A   Clear
10:15 PM 84.2 °F 28.8 °F 13% 29.78 in 10.0 mi South 9.2 mph - N/A   Clear
11:15 PM 81.5 °F 36.5 °F 20% 29.77 in 10.0 mi South 8.1 mph - N/A   Clear
11:55 PM 79.9 °F 39.9 °F 24% 29.76 in 10.0 mi South 8.1 mph - N/A   Clear